Showing default

BLACKJACK ACES-4, 56952

Orbit data source: Space-Track

BLACKJACK ACES-4, 56952 is a payload satellite owned by DARPA (US) in SSO that was launched on Mon, 12 Jun 2023 UTC via an FALCON 9 launch vehicle from the Air Force Western Test Range (AFWTR). Payload-class satellites include a variety of spacecraft equipped with specific instruments for various scientific and technological missions. These include communications satellites like Starlink; space stations such as the ISS; scientific satellites like the Hubble; Earth observation satellites from companies like Planet Labs, Umbra, and HawkEye 360; GPS; miniature CubeSats for education and research; and military/defense satellites.

Loading next visibility...
Identifier
56952, 2023-084W
Orbit
SSO
Country
Flag of USUS
Related business
Manufacturer
BLCAN/LMSS
Mission
Operational Defense Communications
Bus & Motor
X-SAT, Unknown motor
Mass
~200 kg wet, ~200 kg dry
Launch date (UTC)
2023-06-12 (2 years ago)
Launch vehicle
FALCON 9
Launch site
Air Force Western Test Range (AFWTR)
Object type
Payload
Rocket body
Debris
Shape & HBR
Box, 2.6 m
Radar Cross Section
0.875 m², Large (>1 m²)

Expand to show TLE details & history
Last TLE update: 19 hours ago

TLE from 19 hours ago
0 BLACKJACK ACES-4
1 56952U 23084W   25286.37502451  .00138936  00000-0  13001-2 0  9991
2 56952  97.5848  69.4139 0004869  68.5223 291.6555 15.66794068130633
Epoch: 2025-10-13T09:00Z
TLE epoch observation values (Epoch: 2025-10-13T09:00:02.117Z)
Latitude
-0.0001°
Longitude
-87.77362°
Altitude
370.021 km
Speed
7.688 km/s
True Right ascension
04h 37m 39s
True Declination
0° 00' 00"
Sunlit
Object was in full shadow at epoch
Visualization orbit readout
Latitude
Unknown
Longitude
Unknown
Altitude
Unknown
Speed
Unknown
Apparent Right ascension
Unknown
Apparent Declination
Unknown
Sunlit
N/A
Visualization observer readout
Local Sidereal Time
22:04:17
Azimuth
Unknown
Elevation
Unknown
Doppler factor
Unknown
Orbital elements
Apogee altitude
368.279 km
Perigee altitude
361.712 km
Semi-major axis
6,743.133 km
Eccentricity
0.00049
Inclination
97.5848°
RAAN
69.4139°
Arg. of periapsis
68.5223°
True anomaly
291.60363°
Mean anomaly
291.6555°
Eccentric anomaly
291.62957°
Mean motion
3.91968 °/min
Orbital period
91.84 mins
BSTAR
0.0013001
Loading maneuver chart data...
Computing Atmospheric mass density...
Loading historical data...
Loading historical data...
Loading historical data...
Loading historical data...
Loading historical data...
Loading historical data...
Loading historical data...

Documentation

Showing up to 5 results
|